Roxboro, NC

11:38 PM EDT on May 21, 2018 (GMT -0400)
Person County

Weather History for KTDF - April, 2013

Change the Weather History Date:

Thursday, April 4, 2013

  Actual Average Record
Temperature  
Mean Temperature 42 °F -  
Max Temperature 48 °F 68 °F 86 °F (1963)
Min Temperature 35 °F 43 °F 28 °F (1992)
Degree Days  
Heating Degree Days 24    
Moisture  
Dew Point 28 °F    
Average Humidity 66    
Maximum Humidity 100    
Minimum Humidity 34    
Precipitation  
Precipitation 0.23 in - - ()
Sea Level Pressure  
Sea Level Pressure 30.24 in    
Wind  
Wind Speed 9 mph (NE)    
Max Wind Speed 16 mph    
Max Gust Speed 23 mph    
Visibility 9 miles    
Events Rain    
Averages and records for this station are not official NWS values.
T = Trace of Precipitation, MM = Missing Value Source: NWS Daily Summary

Daily Weather History Graph

Daily Weather History Graph

Search for Another Location

Airport or City:

Astronomy

Apr. 04, 2013 Rise Set
Actual Time 6:57 AM EDT 7:40 PM EDT
Civil Twilight 6:31 AM EDT 8:06 PM EDT
Nautical Twilight 6:00 AM EDT 8:37 PM EDT
Astronomical Twilight 5:29 AM EDT 9:09 PM EDT
Moon 3:13 AM EDT (4/4) 2:06 PM EDT (4/4)
Length of Visible Light 13h 35m
Length of Day
12h 43m
Waning Crescent, 34% of the Moon is Illuminated
Apr 4
Waning Crescent
Apr 10
New
Apr 18
First Quarter
Apr 25
Full
May 2
Last Quarter

Hourly Weather History & Observations

Time (EDT) Temp. Windchill Dew Point Humidity Pressure Visibility Wind Dir Wind Speed Gust Speed Precip Events Conditions
12:15 AM 44.6 °F 40.2 °F 19.4 °F 37% 30.32 in 10.0 mi NNE 8.1 mph - N/A   Clear
12:35 AM 44.6 °F 39.7 °F 17.6 °F 34% 30.32 in 10.0 mi NNE 9.2 mph 18.4 mph N/A   Clear
12:55 AM 44.6 °F 38.4 °F 19.4 °F 37% 30.32 in 10.0 mi NE 12.7 mph 17.3 mph N/A   Clear
1:15 AM 42.8 °F 36.2 °F 19.4 °F 39% 30.33 in 10.0 mi NE 12.7 mph 19.6 mph N/A   Clear
1:35 AM 42.8 °F 36.6 °F 19.4 °F 39% 30.32 in 10.0 mi NE 11.5 mph 17.3 mph N/A   Clear
1:55 AM 41.0 °F 34.7 °F 19.4 °F 42% 30.33 in 10.0 mi NE 10.4 mph - N/A   Clear
2:15 AM 42.8 °F 35.8 °F 19.4 °F 39% 30.33 in 10.0 mi ENE 13.8 mph 19.6 mph N/A   Clear
2:35 AM 41.0 °F 33.1 °F 17.6 °F 39% 30.32 in 10.0 mi ENE 15.0 mph 23.0 mph N/A   Clear
2:55 AM 41.0 °F 35.2 °F 17.6 °F 39% 30.32 in 10.0 mi ENE 9.2 mph 17.3 mph N/A   Clear
3:15 AM 41.0 °F 33.9 °F 19.4 °F 42% 30.32 in 10.0 mi ENE 12.7 mph 18.4 mph N/A   Clear
3:35 AM 41.0 °F 34.7 °F 19.4 °F 42% 30.33 in 10.0 mi ENE 10.4 mph - N/A   Clear
3:55 AM 41.0 °F 35.2 °F 19.4 °F 42% 30.33 in 10.0 mi East 9.2 mph - N/A   Clear
4:15 AM 39.2 °F 33.6 °F 21.2 °F 49% 30.33 in 10.0 mi ENE 8.1 mph - N/A   Clear
4:35 AM 37.4 °F 32.1 °F 23.0 °F 56% 30.34 in 10.0 mi ENE 6.9 mph - N/A   Clear
4:55 AM 37.4 °F 33.8 °F 23.0 °F 56% 30.34 in 10.0 mi ENE 4.6 mph - N/A   Clear
5:15 AM 37.4 °F 32.1 °F 23.0 °F 56% 30.34 in 10.0 mi ENE 6.9 mph - N/A   Clear
5:35 AM 37.4 °F 32.1 °F 24.8 °F 60% 30.33 in 10.0 mi ENE 6.9 mph - N/A   Clear
5:55 AM 35.6 °F 29.9 °F 24.8 °F 65% 30.34 in 10.0 mi ENE 6.9 mph - N/A   Clear
6:15 AM 35.6 °F 29.9 °F 24.8 °F 65% 30.34 in 10.0 mi NE 6.9 mph - N/A   Clear
6:35 AM 35.6 °F 29.9 °F 24.8 °F 65% 30.35 in 10.0 mi ENE 6.9 mph - N/A   Clear
6:55 AM 35.6 °F 29.2 °F 24.8 °F 65% 30.35 in 10.0 mi NE 8.1 mph - N/A   Clear
7:15 AM 35.6 °F 28.6 °F 21.2 °F 56% 30.36 in 10.0 mi ENE 9.2 mph - N/A   Clear
7:35 AM 35.6 °F 29.9 °F 21.2 °F 56% 30.37 in 10.0 mi ENE 6.9 mph - N/A   Clear
7:55 AM 35.6 °F 28.0 °F 21.2 °F 56% 30.38 in 10.0 mi ENE 10.4 mph - N/A   Clear
8:15 AM 37.4 °F 30.8 °F 21.2 °F 52% 30.39 in 10.0 mi ENE 9.2 mph - N/A   Clear
8:35 AM 37.4 °F 31.4 °F 21.2 °F 52% 30.40 in 10.0 mi ENE 8.1 mph - N/A   Clear
8:55 AM 37.4 °F 29.8 °F 21.2 °F 52% 30.38 in 10.0 mi ENE 11.5 mph - N/A   Clear
9:15 AM 41.0 °F 35.2 °F 21.2 °F 45% 30.38 in 10.0 mi ENE 9.2 mph - N/A   Clear
9:35 AM 41.0 °F 34.7 °F 21.2 °F 45% 30.38 in 10.0 mi ENE 10.4 mph - N/A   Clear
9:55 AM 41.0 °F 32.8 °F 21.2 °F 45% 30.36 in 10.0 mi East 16.1 mph 19.6 mph N/A   Clear
10:15 AM 41.0 °F 34.7 °F 21.2 °F 45% 30.35 in 10.0 mi East 10.4 mph - N/A   Clear
10:35 AM 42.8 °F 37.5 °F 21.2 °F 42% 30.35 in 10.0 mi East 9.2 mph - N/A   Clear
10:55 AM 42.8 °F 38.0 °F 21.2 °F 42% 30.34 in 10.0 mi East 8.1 mph - N/A   Clear
11:15 AM 44.6 °F 40.2 °F 21.2 °F 39% 30.35 in 10.0 mi East 8.1 mph - N/A   Clear
11:35 AM 44.6 °F 40.2 °F 21.2 °F 39% 30.33 in 10.0 mi ENE 8.1 mph - N/A   Mostly Cloudy
11:55 AM 44.6 °F 40.2 °F 23.0 °F 43% 30.32 in 10.0 mi East 8.1 mph - N/A   Mostly Cloudy
12:15 PM 44.6 °F 39.7 °F 23.0 °F 43% 30.30 in 10.0 mi East 9.2 mph - N/A   Scattered Clouds
12:35 PM 46.4 °F 41.9 °F 23.0 °F 40% 30.30 in 10.0 mi ENE 9.2 mph - N/A   Mostly Cloudy
12:55 PM 46.4 °F 42.4 °F 24.8 °F 43% 30.28 in 10.0 mi East 8.1 mph 16.1 mph N/A Rain Light Rain
1:15 PM 48.2 °F - 24.8 °F 40% 30.26 in 10.0 mi East 12.7 mph 16.1 mph N/A   Scattered Clouds
1:35 PM 48.2 °F - 26.6 °F 43% 30.25 in 10.0 mi East 8.1 mph - N/A   Mostly Cloudy
1:55 PM 46.4 °F 42.9 °F 26.6 °F 46% 30.25 in 10.0 mi East 6.9 mph - N/A Rain Light Rain
2:15 PM 46.4 °F 41.9 °F 28.4 °F 50% 30.23 in 10.0 mi East 9.2 mph - N/A Rain Light Rain
2:35 PM 46.4 °F 42.9 °F 28.4 °F 50% 30.25 in 10.0 mi SE 6.9 mph - N/A Rain Light Rain
2:55 PM 42.8 °F - 32.0 °F 66% 30.25 in 10.0 mi Calm Calm - 0.01 in Rain Rain
3:15 PM 41.0 °F - 35.6 °F 81% 30.25 in 10.0 mi Calm Calm - 0.01 in Rain Light Rain
3:35 PM 41.0 °F 38.0 °F 35.6 °F 81% 30.22 in 10.0 mi NNE 4.6 mph - 0.02 in Rain Light Rain
3:55 PM 41.0 °F 37.1 °F 35.6 °F 81% 30.21 in 7.0 mi NNE 5.8 mph - 0.03 in Rain Rain
4:15 PM 37.4 °F 32.1 °F 33.8 °F 87% 30.21 in 5.0 mi NNE 6.9 mph - 0.02 in Rain Rain
4:35 PM 37.4 °F 32.1 °F 35.6 °F 93% 30.20 in 10.0 mi NNE 6.9 mph - 0.03 in Rain Light Rain
4:55 PM 37.4 °F 31.4 °F 35.6 °F 93% 30.18 in 10.0 mi NE 8.1 mph 16.1 mph 0.03 in Rain Light Rain
5:15 PM 37.4 °F 30.8 °F 35.6 °F 93% 30.17 in 10.0 mi NE 9.2 mph - N/A   Drizzle
5:35 PM 37.4 °F 30.8 °F 35.6 °F 93% 30.16 in 10.0 mi NE 9.2 mph - N/A   Drizzle
5:55 PM 37.4 °F 31.4 °F 35.6 °F 93% 30.16 in 10.0 mi NE 8.1 mph - N/A   Light Drizzle
6:15 PM 37.4 °F 30.3 °F 37.4 °F 100% 30.15 in 10.0 mi NE 10.4 mph - N/A Rain Rain
6:35 PM 37.4 °F 30.3 °F 35.6 °F 93% 30.14 in 4.0 mi NE 10.4 mph - 0.01 in Rain Rain
6:55 PM 37.4 °F 29.3 °F 37.4 °F 100% 30.12 in 7.0 mi NE 12.7 mph - 0.01 in Rain Rain
7:15 PM 35.6 °F 26.6 °F 35.6 °F 100% 30.10 in 4.0 mi NE 13.8 mph - 0.01 in Rain Light Rain
7:35 PM 35.6 °F 28.0 °F 35.6 °F 100% 30.09 in 7.0 mi NNE 10.4 mph - 0.01 in Rain Rain
7:55 PM 35.6 °F 28.6 °F 35.6 °F 100% 30.09 in 3.0 mi NNE 9.2 mph - 0.03 in Rain Heavy Rain
8:15 PM 35.6 °F 26.6 °F 35.6 °F 100% 30.06 in 4.0 mi NE 13.8 mph 18.4 mph 0.01 in Rain Light Rain
8:35 PM 35.6 °F 29.9 °F 35.6 °F 100% 30.07 in 4.0 mi NNE 6.9 mph - N/A Rain Heavy Rain
8:55 PM 37.4 °F 30.3 °F 37.4 °F 100% 30.06 in 10.0 mi NE 10.4 mph - 0.01 in   Drizzle
9:15 PM 37.4 °F 30.3 °F 37.4 °F 100% 30.06 in 7.0 mi NE 10.4 mph - 0.01 in Rain Light Rain
9:35 PM 37.4 °F 32.1 °F 37.4 °F 100% 30.07 in 4.0 mi NNE 6.9 mph - 0.02 in Rain Rain
9:55 PM 37.4 °F 32.1 °F 37.4 °F 100% 30.06 in 5.0 mi NNE 6.9 mph - 0.03 in Rain Rain
10:15 PM 37.4 °F 32.8 °F 37.4 °F 100% 30.02 in 5.0 mi NNE 5.8 mph - 0.01 in Rain Light Rain
10:35 PM 37.4 °F 31.4 °F 37.4 °F 100% 30.02 in 4.0 mi North 8.1 mph 17.3 mph 0.02 in Rain Rain
10:55 PM 37.4 °F 30.8 °F 37.4 °F 100% 29.99 in 4.0 mi NNE 9.2 mph - 0.04 in Rain Rain
11:15 PM 37.4 °F 32.8 °F 37.4 °F 100% 29.98 in 7.0 mi NNE 5.8 mph 16.1 mph N/A Rain Light Rain
11:35 PM 37.4 °F 32.1 °F 37.4 °F 100% 29.97 in 5.0 mi NNE 6.9 mph - 0.01 in Rain Rain
11:55 PM 37.4 °F 32.1 °F 37.4 °F 100% 29.96 in 2.5 mi North 6.9 mph - 0.04 in Rain Rain